EW2847 Weather Reports


Display with metric or nautical units.
time (UTC)temp
F
wind
direction
speed
MPH
gust
MPH
rain 1hr
in
rain 24hr
in
rain mn
in
humidity
%
barometer
mb
20260507043022 36 318 0.0 2.0 0.00 0.00 0.00 76 1007.7
20260507041519 36 318 0.0 1.0 0.00 0.00 0.00 75 1007.9
20260507040019 36 318 0.0 0.0 0.00 0.00 0.00 74 1007.8
20260507034530 36 318 0.0 1.0 0.00 0.00 0.00 74 1007.8
20260507033017 36 318 0.0 0.0 0.00 0.00 0.00 73 1007.7
20260507031516 37 318 0.0 2.0 0.00 0.00 0.00 72 1007.6
20260507030016 37 338 1.0 2.0 0.00 0.00 0.00 70 1007.5
20260507024517 38 351 0.0 3.0 0.00 0.00 0.00 69 1007.3
20260507023021 38 351 0.0 2.0 0.00 0.00 0.00 68 1007.3
20260507021514 39 351 0.0 0.0 0.00 0.00 0.00 66 1007.6
20260507020027 39 351 0.0 4.0 0.00 0.00 0.00 65 1007.7
20260507014513 40 355 0.0 3.0 0.00 0.00 0.00 64 1007.8
20260507013024 40 355 1.0 2.0 0.00 0.00 0.00 63 1007.9
20260507011513 40 355 0.0 1.0 0.00 0.00 0.00 63 1008.0
20260507010012 40 355 0.0 3.0 0.00 0.00 0.00 62 1007.9
20260507004510 41 355 0.0 2.0 0.00 0.00 0.00 61 1007.8
20260507003011 41 355 1.0 3.0 0.00 0.00 0.00 61 1007.8
20260507001509 41 355 0.0 3.0 0.00 0.00 0.00 60 1007.8
20260507000007 42 355 0.0 4.0 0.00 0.00 0.00 59 1007.8
20260506234508 42 355 1.0 4.0 0.00 0.00 0.00 59 1007.7
20260506233005 42 355 1.0 5.0 0.00 0.00 0.00 58 1007.6
20260506231503 43 355 1.0 5.0 0.00 0.00 0.00 57 1007.5
20260506230002 43 355 0.0 5.0 0.00 0.00 0.00 57 1007.4
20260506224505 43 355 1.0 5.0 0.00 0.00 0.00 56 1007.3
20260506223100 44 355 2.0 5.0 0.00 0.00 0.00 56 1007.3
20260506221601 44 355 1.0 5.0 0.00 0.00 0.00 55 1007.3
20260506220100 44 355 0.0 4.0 0.00 0.00 0.00 54 1007.2
20260506214602 45 355 2.0 4.0 0.00 0.00 0.00 53 1007.1
20260506213054 45 355 1.0 6.0 0.00 0.00 0.00 53 1007.0
20260506211606 45 355 1.0 6.0 0.00 0.00 0.00 52 1006.9
20260506210052 45 355 1.0 4.0 0.00 0.00 0.00 51 1006.7
20260506204550 45 355 1.0 10.0 0.00 0.00 0.00 51 1006.6
20260506203049 46 355 0.0 6.0 0.00 0.00 0.00 51 1006.5
20260506201549 46 355 2.0 5.0 0.00 0.00 0.00 51 1006.5
20260506200050 46 355 1.0 8.0 0.00 0.00 0.00 50 1006.5
20260506194550 46 355 0.0 5.0 0.00 0.00 0.00 50 1006.4
20260506193047 46 355 1.0 8.0 0.00 0.00 0.00 50 1006.4
20260506191546 46 355 2.0 14.0 0.00 0.00 0.00 50 1006.4
20260506190045 46 355 1.0 10.0 0.00 0.00 0.00 49 1006.2
20260506184544 47 355 2.0 8.0 0.00 0.00 0.00 49 1006.1
20260506183042 47 355 5.0 14.0 0.00 0.00 0.00 47 1006.0
20260506181540 47 355 1.0 8.0 0.00 0.00 0.00 47 1005.9
20260506180042 46 355 2.0 10.0 0.00 0.00 0.00 47 1005.7
20260506174538 46 355 2.0 4.0 0.00 0.00 0.00 47 1005.7
20260506173044 47 355 2.0 6.0 0.00 0.00 0.00 46 1005.6
20260506171547 46 355 3.0 6.0 0.00 0.00 0.00 45 1005.5
20260506170038 47 355 2.0 6.0 0.00 0.00 0.00 45 1005.6
20260506164550 46 355 0.0 9.0 0.00 0.00 0.00 46 1005.7
20260506163040 47 355 2.0 6.0 0.00 0.00 0.00 45 1005.8
20260506161536 48 355 5.0 13.0 0.00 0.00 0.00 44 1005.7
20260506160034 47 355 3.0 8.0 0.00 0.00 0.00 46 1005.8
20260506154531 47 355 4.0 10.0 0.00 0.00 0.00 45 1005.7
20260506153032 46 355 2.0 9.0 0.00 0.00 0.00 47 1005.7
20260506151529 47 355 4.0 11.0 0.00 0.00 0.00 46 1005.6
20260506150027 46 355 3.0 12.0 0.00 0.00 0.00 46 1005.7
20260506144530 45 355 2.0 9.0 0.00 0.00 0.00 48 1005.5
20260506143031 45 355 2.0 11.0 0.00 0.00 0.00 49 1005.5
20260506141518 44 355 2.0 10.0 0.00 0.00 0.00 49 1005.5
20260506140016 43 355 3.0 12.0 0.00 0.00 0.00 49 1005.4
20260506134516 43 355 4.0 8.0 0.00 0.00 0.00 49 1005.4
20260506133015 42 355 2.0 5.0 0.00 0.00 0.00 51 1005.0
20260506131516 43 355 2.0 8.0 0.00 0.00 0.00 52 1005.1
20260506130013 41 355 1.0 9.0 0.00 0.00 0.00 54 1005.1
20260506124504 41 355 2.0 10.0 0.00 0.00 0.00 56 1005.1
20260506123002 40 355 2.0 8.0 0.00 0.00 0.00 58 1005.0
20260506121501 38 355 2.0 10.0 0.00 0.00 0.00 61 1004.9
20260506120120 37 355 1.0 9.0 0.00 0.00 0.00 64 1005.0
20260506114559 37 355 1.0 6.0 0.00 0.00 0.00 67 1005.0
20260506113103 35 355 2.0 9.0 0.00 0.00 0.00 69 1005.0
20260506111552 34 355 1.0 11.0 0.00 0.00 0.00 71 1004.9
20260506110047 33 355 1.0 9.0 0.00 0.00 0.00 74 1004.9
20260506104542 32 355 1.0 5.0 0.00 0.00 0.00 76 1004.7
20260506103038 31 355 1.0 4.0 0.00 0.00 0.00 76 1004.6
20260506101536 31 360 1.0 4.0 0.00 0.00 0.00 76 1004.5
20260506100034 31 306 1.0 3.0 0.00 0.00 0.00 75 1004.4
20260506094536 32 39 1.0 3.0 0.00 0.00 0.00 75 1004.4
20260506093042 32 197 1.0 3.0 0.00 0.00 0.00 74 1004.4
20260506091527 32 221 1.0 4.0 0.00 0.00 0.00 73 1004.2
20260506090025 33 222 1.0 4.0 0.00 0.00 0.00 72 1004.1
20260506084521 33 281 1.0 4.0 0.00 0.00 0.00 70 1004.0
20260506083018 34 182 2.0 5.0 0.00 0.00 0.00 69 1003.9
20260506081516 35 221 1.0 4.0 0.00 0.00 0.00 68 1003.8
20260506073009 37 301 2.0 5.0 0.00 0.00 0.00 66 1003.7
20260506071519 37 183 2.0 6.0 0.00 0.00 0.00 65 1003.6
20260506070115 37 190 2.0 7.0 0.00 0.00 0.00 65 1003.5
20260506061549 38 350 2.0 5.0 0.00 0.01 0.00 65 1003.2
20260506044550 40 350 1.0 3.0 0.00 0.11 0.00 59 1002.8